www.pogodaiklimat.ru

Погода и климат >> Архив погоды >> Парагвай >> Грал Бругуез


ПОГОДА в Грал Бругуез

  • Прогноз погоды в Грал Бругуез
  • Монитор погоды в Грал Бругуез

АРХИВ ПОГОДЫ в Грал Бругуез

Время (UTC), дата Ветер
(напр.,м/с)
 
Видим.   Явления Облачность Т
(С)
Тd
(С)
f
(%)
Тe
(С)
Тes
(С)
Комфортность P
(гПа)
Po
(гПа)
Тmin
(С)
Tmax
(С)
R
(мм)
R24
(мм)
S
(см)
21 16.07 Ю 1 20 км 6/0
[Cs]
+20.4 +8.3 46 +23 +23 комфорт 1018.3 1007.8
00 17.07 штиль 0 20 км ясно +14.2 +10.3 77 +14 +14 1019.3 1008.8 +23.0
09 17.07 штиль 0 20 км ясно +5.6 +4.4 92 +5 +5 1020.0 1009.0
12 17.07 ЮВ 2 20 км 1/0
[Ci fib]
+8.0 +7.5 97 +6 +8 1020.6 1009.6 +4.6
15 17.07 В 4 20 км 3/0
[Ci fib]
+19.4 +9.1 51 +20 +26 1020.8 1010.2
18 17.07 ЮВ 4 20 км 4/0
[Ci fib]
+22.8 +8.0 39 +24 +28 комфорт 1017.3 1006.9
21 17.07 В 2 20 км 6/0
[Cs]
+22.0 +11.4 51 +24 +24 комфорт 1016.3 1005.9
00 18.07 В 1 20 км 8/0
[Cs]
+15.2 +12.9 86 +16 +16 1016.7 1006.0 +23.5
09 18.07 В 3 20 км 8/0 2000 м
[Ac As]
+17.6 +10.7 64 +18 +18 1014.0 1003.5
12 18.07 СВ 1 20 км 9/5 800 м
[Sc Ac As]
+16.8 +11.3 70 +18 +18 1015.4 1004.8 +8.0
15 18.07 СВ 5 20 км 9/5 800 м
[Sc Ac As]
+20.6 +12.1 58 +23 +24 комфорт 1016.5 1006.0
18 18.07 СВ 3 20 км 9/6 700 м
[Sc Ac As]
+23.6 +12.5 50 +26 +27 жарко 1015.1 1004.8
21 18.07 СВ 2 20 км 9/5 800 м
[Sc Ac As]
+21.0 +13.8 63 +24 +24 комфорт 1013.6 1003.2
00 19.07 В 1 20 км 5/5 800 м
[Sc]
+18.4 +14.2 77 +20 +20 1014.0 1004.5 +23.6
12 19.07 В 6 10 км гроза, ливневой дождь 10/4 150 м
[Cb cap As op]
+15.8 +15.8 100 +14 +14 1017.6 1007.0 +15.8 23
15 19.07 В 2 8000 м гроза, ливневой дождь 10/5 210 м
[Cb cap As op]
+16.2 +15.6 96 +16 +17 1016.6 1006.0 10
18 19.07 СВ 6 20 км 5/5 1000 м
[Sc]
+22.0 +17.1 74 +26 +28 душно 1014.5 1004.1 0.2
21 19.07 СВ 5 20 км 5/5 960 м
[Sc]
+23.8 +17.8 69 +28 +28 душно 1013.2 1002.9
00 20.07 СВ 2 20 км ясно +20.0 +18.1 89 +24 +24 комфорт 1013.3 1002.9 +24.2
12 20.07 В 2 20 км ясно +17.0 +15.3 90 +17 +19 1012.2 1001.6 +15.6 0.2
15 20.07 В 1 20 км 1/0
[Ci fib]
+24.2 +17.2 65 +28 +40 душно 1012.4 1002.1
18 20.07 В 4 20 км ясно +28.0 +16.9 51 +32 +37 душно 1008.5 998.4
21 20.07 СВ 2 20 км 6/0
[Cs]
+28.0 +18.7 57 +33 +33 очень
душно
1007.3 997.2
00 21.07 С 3 20 км ясно +24.4 +18.8 71 +29 +29 душно 1007.7 997.4 +29.0
09 21.07 СВ 4 20 км 3/0
[Ci fib]
+20.8 +16.4 76 +24 +24 комфорт 1005.1 994.8
12 21.07 СВ 7 20 км 3/0
[Ac trans]
+22.2 +16.8 71 +27 +27 душно 1004.9 994.6 +17.0
15 21.07 СВ 10 20 км 3/0 2000 м
[Ac cast]
+27.2 +15.7 49 +30 +30 душно 1004.3 994.2
18 21.07 СВ 10 20 км ясно +30.8 +15.1 39 +33 +33 душно 1000.4 990.4
21 21.07 СВ 8 20 км 3/1 1200 м
[Cu hum]
+29.8 +17.3 47 +34 +34 очень
душно
1000.2 990.2
00 22.07 СВ 7 20 км ясно +28.2 +14.9 44 +31 +31 душно 1001.3 991.2 +31.4
12 22.07 СВ 3 20 км 9/6 800 м
[Sc Ac As]
+22.4 +14.7 62 +26 +26 жарко 1007.6 997.3 +20.5
15 22.07 СВ 6 20 км 9/5 700 м
[Sc Ac As]
+25.4 +16.7 59 +29 +30 душно 1007.4 997.2
18 22.07 СВ 3 20 км 10/10 700 м
[Sc Ac As]
+27.0 +17.5 56 +31 +31 душно 1007.2 997.1
21 22.07 С 1 20 км 10/10 700 м
[Sc]
+25.0 +20.4 76 +31 +31 очень
душно
1007.2 997.0
00 23.07 Ю 3 20 км 5/5 800 м
[Sc]
+22.0 +17.4 75 +26 +26 душно 1010.2 999.9 +28.2
09 23.07 ЮЗ 2 6000 м гроза, ливневой дождь 10/4 150 м
[Cb cap As op]
+14.6 +13.8 95 +14 +14 1012.5 1001.9 22
12 23.07 ЮЗ 2 20 км {дождь} 10/10 150 м
[St]
+14.6 +13.7 94 +14 +14 1014.6 1004.0 +14.6 0.6
15 23.07 ЮЗ 2 20 км 10/10 180 м
[St]
+15.0 +13.5 91 +15 +15 1016.1 1005.4

 

Местоположение метеостанции Грал Бругуез (Парагвай): широта -24.76 долгота -58.83 высота над уровнем моря 80 м.

В архиве по умолчанию представлена погода в Грал Бругуез за последнюю неделю. Архивные данные за месяц целиком и за предыдущие месяцы, начиная с января 2011 года, Вы можете получить, выбрав интересующий диапазон дат из раскрывающегося списка и нажав кнопку "Ввод!".


*Определитесь, кто Вы:
робот инопланетянин человек

Внимание! Время в таблицах - всемирное. Для получения местного времени необходимо прибавить поправку, которая равна -4 ч.

Смотрите также архив погоды в соседних городах и на ближайших метеорологических станциях:

Погода в Асунсьоне (Парагвай) (144 км)
Погода в Посо Колорадо (Парагвай) (154 км)
Погода в Формосе (Аргентина) (171 км)
Погода в Лас-Ломитасе (Аргентина) (177 км)
Погода в Сан-Педро (Парагвай) (194 км)
Погода в Парагуари (Парагвай) (197 км)
Погода в Консепсьоне (Парагвай) (216 км)
Погода в Пиларе (Парагвай) (238 км)
Погода в Сан Эстанислао (Парагвай) (243 км)
Погода в Куйкуйо (Парагвай) (247 км)

Пояснения к столбцам:

Ветер - указаны скорость ветра в м/с - средняя за 10 мин, порывы в срок и между сроками (в фигурных скобках) и направление, откуда дует ветер: С - северный, СВ - северо-восточный, В - восточный, ЮВ - юго-восточный, Ю - южный, ЮЗ - юго-западный, З - западный, СЗ - северо-западный.
Видимость - горизонтальная дальность видимости в метрах или километрах. При видимости от 1 до 10 км при отсутствии осадков обычно наблюдается дымка, при ухудшении видимости до 1 км и менее - туман. В сухую погоду видимость может ухудшаться дымом, пылью или мглою.
Явления - указаны атмосферные явления, наблюдавшиеся в срок или в последний час перед сроком; фигурными скобками обозначены явления, наблюдавшиеся между сроками (за 1-3 часа до срока); квадратными скобками обозначены град или гололедные отложения с указанием их диаметра в мм.
Облачность - указаны через наклонную черту общая и нижняя облачность в баллах и высота нижней границы облаков в метрах; квадратными скобками обозначены формы облаков: Ci - перистые, Cs - перисто-слоистые, Cc - перисто-кучевые, Ac - высококучевые, As - высокослоистые, Sc - слоисто-кучевые, Ns - слоисто-дождевые, Cu - кучевые, Cb - кучево-дождевые. Подробнее классификацию облаков см. в Атласе облаков (PDF).
T - Температура воздуха - температура, измеренная на высоте 2 м над землей.
Td - Температура точки росы - температура, при понижении до которой содержащийся в воздухе водяной пар достигнет насыщения.
f - Относительная влажность воздуха - влажноcть воздуха, измеренная на высоте 2 м над землей.
Te - Эффективная температура - температура, которую ощущает одетый по сезону человек в тени. Характеристика душности погоды. При расчете учитывается влияние влажности воздуха и скорости ветра на теплоощущения человека.
Tes - Эффективная температура на солнце - температура, которую ощущает человек, с поправкой на солнечный нагрев. Характеристика знойности погоды. Зависит от высоты солнца над горизонтом, облачности и скорости ветра. Ночью, в пасмурную погоду, а также при ветре 12 м/с и более поправка равна нулю.
P - Атмосферное давление - приведенное к уровню моря атмосферное давление.
Po - Атмосферное давление - измеренное на уровне метеостанции атмосферное давление.
Tmin - Минимальная температура - минимум температуры воздуха на высоте 2 м над землей.
Tmax - Максимальная температура - максимум температуры воздуха на высоте 2 м над землей.
R - Количество осадков - Количество выпавших осадков за период времени, мм. При наведении курсора мыши на число - период времени, за который выпало указанное количество осадков.
R24 - Количество осадков - Количество выпавших осадков за 24 часа, мм.
S - Снежный покров - Высота снежного покрова, см. При наведении курсора мыши на число - состояние снежного покрова и степень покрытия местности в баллах.